Regional Weather Roundup
Issued by NWS

Home | Current Version | Previous Version | Text Only | Print | Product List | Glossary On
Versions: 1 2 3 4 5 6 7 8 9 10 11 12 13 14 15 16 17 18 19 20 21 22 23 24 25 26 27 28 29 30 31 32 33 34 35 36 37 38 39 40 41 42 43 44 45 46 47 48 49 50
000
ASUS44 KOUN 221700
RWROK

WEATHER ROUNDUP FOR OKLAHOMA
NATIONAL WEATHER SERVICE NORMAN OK
1100 AM CST MON DEC 22 2014

NOTE: "FAIR" INDICATES FEW OR NO CLOUDS BELOW 12,000 FEET WITH NO
      SIGNIFICANT WEATHER AND/OR OBSTRUCTIONS TO VISIBILITY.

OKZ001>007-009>012-014-015-017-221800-
NORTHWEST OKLAHOMA AND THE PANHANDLE

CITY           SKY/WX    TMP DP  RH WIND       PRES   REMARKS
GAGE           SUNNY     49  31  49 NW23G38   29.69R
ENID/WOODRING  PTSUNNY   50  46  87 W17       29.60S
$$

OKZ016-021>023-033>039-044-045-221800-
SOUTHWEST OKLAHOMA

CITY           SKY/WX    TMP DP  RH WIND       PRES   REMARKS
LAWTON/REGL    CLOUDY    53  40  61 N21       29.62F
FREDERICK      PTSUNNY   54  41  61 N24G35    29.63S
CLINTON        PTSUNNY   52  38  58 N20       29.65F
HOBART         MOSUNNY   54  38  54 N24G31    29.66R
$$

OKZ018>020-024>031-221800-
CENTRAL OKLAHOMA

CITY           SKY/WX    TMP DP  RH WIND       PRES   REMARKS
OKLAHOMA CITY  CLOUDY    52  42  69 NW17G25   29.62S
OKC/WILEY POST PTSUNNY   51  43  74 NW14      29.64R
STILLWATER     CLOUDY    52  46  80 W10       29.59S
GUTHRIE        CLOUDY    52  44  74 W13       29.61R
$$

OKZ008-013-054>072-221800-
NORTHEAST OKLAHOMA

CITY           SKY/WX    TMP DP  RH WIND       PRES   REMARKS
TULSA          CLOUDY    50  48  93 S5        29.59F
TULSA/JONES    CLOUDY    50  48  93 CALM      29.58F
PONCA CITY     CLOUDY    50  47  89 W6        29.58F FOG
BARTLESVILLE   CLOUDY    48  47  96 SW5       29.59F FOG
MUSKOGEE       CLOUDY    50  47  89 S5        29.60F
$$

OKZ032-040>043-046>053-073>077-221800-
SOUTH CENTRAL/SOUTHEAST OKLAHOMA

CITY           SKY/WX    TMP DP  RH WIND       PRES   REMARKS
MCALESTER      CLOUDY    55  48  77 SW9       29.59F
$$



USA.gov is the U.S. government's official web portal to all federal, state and local government web resources and services.